Location: Adaghas
(31.2259°N, 9.0496°W)
Time: 03:29:42
(UTC+00:00)

Cosmos 1680 Rocket - Pass Details

Date: 18 September 2020
Orbit: 760 x 781 km, 74.1° (Epoch: 23 October)

Event Time Altitude Azimuth Distance (km) Brightness Sun altitude
Rises 18:56:14 0° 352° (N) 3,228 6.9 -4.8°
Reaches altitude 10° 18:58:44 10° 359° (N) 2,302 6.1 -5.4°
Maximum altitude 19:03:40 42° 70° (ENE) 1,088 3.9 -6.4°
Drops below altitude 10° 19:08:36 10° 141° (SE) 2,303 5.6 -7.5°
Sets 19:11:06 0° 148° (SSE) 3,230 6.4 -8.0°
